AO-07 1 07530U 74089B 16322.38116304 -.00000049 00000-0 -30659-4 0 9995 2 07530 101.5983 289.5258 0012296 14.5934 140.8428 12.53624127922316 FO-29 1 24278U 96046B 16322.16380805 -.00000039 00000-0 -48889-5 0 9999 2 24278 98.5831 227.3469 0350642 166.3679 194.7235 13.53071497 203 RS-22 1 27939U 03042A 16322.88085400 .00000182 00000-0 41113-4 0 9991 2 27939 97.9097 108.8404 0013233 171.4207 307.0504 14.66487608702347 AO-73 1 39444U 13066AE 16322.71617220 .00000453 00000-0 63200-4 0 9997 2 39444 97.6619 9.6634 0057536 238.0959 121.4649 14.81253972160303 EO-79 1 40025U 14033R 16322.70401324 .00000514 00000-0 61769-4 0 9990 2 40025 97.9194 228.0389 0011283 282.4052 77.5901 14.88215781131034 XW-2A 1 40903U 15049E 16322.82099830 .00002649 00000-0 73998-4 0 9999 2 40903 97.4382 339.8880 0013983 309.4362 50.5644 15.37556741 65156 XW-2C 1 40906U 15049H 16322.78796991 .00001048 00000-0 61086-4 0 9996 2 40906 97.4543 326.6088 0014287 222.1368 137.8766 15.14065957 64249 LILACSAT-2 1 40908U 15049K 16322.78172164 .00000596 00000-0 37504-4 0 9993 2 40908 97.4611 326.3714 0015259 216.6935 143.3252 15.12832962 64202 UO-11 1 14781U 84021B 16322.69025240 .00000134 00000-0 22914-4 0 9998 2 14781 97.7294 9.8288 0008908 163.2704 196.8806 14.82826949759006 LO-19 1 20442U 90005G 16321.85808910 .00000038 00000-0 30049-4 0 9999 2 20442 098.5559 254.7481 0012795 057.8702 302.3721 14.32838753401152 AO-27 1 22825U 93061C 16322.67225688 .00000009 00000-0 21122-4 0 9997 2 22825 98.7813 280.0234 0007566 224.5807 135.4767 14.29976640207176 IO-26 1 22826U 93061D 16321.77236291 .00000021 00000-0 25582-4 0 9998 2 22826 098.7754 279.2225 0008177 217.7590 142.3019 14.30303311206967 GO-32 1 25397U 98043D 16322.71179533 .00000004 00000-0 20432-4 0 9999 2 25397 98.5849 263.7861 0000269 202.4579 157.6588 14.23608448953704 NO-44 1 26931U 01043C 16322.81269037 -.00000001 00000-0 31424-4 0 9999 2 26931 67.0512 276.5576 0005599 276.1108 83.9355 14.30435285790111 SO-50 1 27607U 02058C 16321.62691535 .00000138 00000-0 40614-4 0 9998 2 27607 64.5565 55.0752 0050052 180.6764 179.4279 14.75247627747757 CO-55 1 27844U 03031E 16321.93283708 .00000076 00000-0 54378-4 0 9999 2 27844 098.6922 328.0267 0008825 238.1446 121.8874 14.21994417694116 CO-57 1 27848U 03031J 16322.57934722 .00000052 00000-0 43724-4 0 9990 2 27848 98.7018 328.8287 0008666 245.7764 114.2508 14.21615327694139 CO-65 1 32785U 08021C 16322.66030532 .00000354 00000-0 44454-4 0 9992 2 32785 97.5877 350.3758 0014097 144.0473 216.1695 14.87730172463446 PRISM 1 33493U 09002B 16322.86610971 .00001793 00000-0 16810-3 0 9994 2 33493 98.1944 190.0472 0016882 62.4174 297.8756 14.95308550424195 TISAT-1 1 36799U 10035E 16322.84254762 .00000622 00000-0 70336-4 0 9998 2 36799 98.0434 75.6368 0011304 304.3549 55.6598 14.90107294344305 ALMASAT-1 1 38078U 12006B 16321.96431877 .00025653 37479-5 31112-3 0 9990 2 38078 069.4465 339.0930 0354216 241.5787 114.9258 15.11681445252605 DUCHIFAT-1 1 40021U 14033M 16322.79056408 .00000676 00000-0 76703-4 0 9997 2 40021 97.9234 229.5924 0011805 279.5356 80.4527 14.89598689131129 NANOSATCBR1 1 40024U 14033Q 16322.69981560 .00000654 00000-0 75602-4 0 9998 2 40024 97.9203 228.7005 0011092 280.3346 79.6620 14.88966567131077 DTUSAT-2 1 40030U 14033W 16322.72332194 .00000469 00000-0 57433-4 0 9998 2 40030 97.9166 227.3760 0010659 275.9427 84.0574 14.87844709131017 ANTELSAT 1 40034U 14033AA 16322.77142298 .00000502 00000-0 83135-4 0 9997 2 40034 97.8818 206.9048 0057876 252.6553 106.8324 14.73542720129791 MET-2/21 1 22782U 93055A 16322.81393183 -.00000001 00000-0 -13979-4 0 9999 2 22782 82.5501 191.3245 0021627 305.9902 101.3058 13.83794535172461 NOAA-15 1 25338U 98030A 16321.93049976 .00000031 00000-0 32087-4 0 9999 2 25338 098.7847 326.4038 0011647 101.8412 258.4074 14.25763775962495 NOAA-18 1 28654U 05018A 16321.94703189 .00000013 00000-0 32499-4 0 9998 2 28654 099.1953 332.8416 0013581 309.2586 050.7379 14.12314483592201 NOAA-19 1 33591U 09005A 16321.92314429 .00000067 00000-0 61215-4 0 9994 2 33591 099.0617 280.0992 0014424 145.7592 214.4512 14.12126686400430 HUBBLE 1 20580U 90037B 16321.50179398 .00000760 00000-0 36181-4 0 9995 2 20580 028.4708 332.7140 0002942 049.5947 198.7034 15.08592465258047 ISS 1 25544U 98067A 16321.65611413 .00006263 00000-0 10345-3 0 9993 2 25544 51.6456 17.6760 0006499 217.4413 249.0302 15.53664557 28700 CO-58 1 28895U 05043F 16321.72495494 .00000237 00000-0 54498-4 0 9997 2 28895 097.8428 128.1141 0018213 095.8179 264.5101 14.63297604589186 AAUSAT2 1 32788U 08021F 16321.67789374 .00000854 00000-0 86113-4 0 9993 2 32788 97.5861 359.3954 0013477 118.2246 242.0337 14.93546375463955 DO-64 1 32789U 08021G 16321.85689648 .00002479 00000-0 18323-3 0 9999 2 32789 097.5871 018.3353 0014147 103.5114 256.7689 15.04053970464846 CO-66 1 32791U 08021J 16322.65218416 .00000560 00000-0 63488-4 0 9994 2 32791 97.5873 354.0490 0014699 132.5837 227.6624 14.89996970463640 RS-30 1 32953U 08025A 16322.84951083 .00000025 00000-0 10521-3 0 9998 2 32953 82.5051 11.0918 0019220 30.5294 329.6901 12.43072821385165 HO-68 1 36122U 09072B 16322.81735748 -.00000032 00000-0 26909-4 0 9995 2 36122 100.1258 352.3378 0007534 7.9373 352.1859 13.16336954332813 JUGNU 1 37839U 11058B 16322.23849887 .00000336 00000-0 37294-4 0 9999 2 37839 19.9620 295.6007 0018943 7.8742 124.2262 14.12562639263695 SRMSAT 1 37841U 11058D 16322.42614992 .00000308 00000-0 24035-4 0 9998 2 37841 19.9732 331.7896 0011651 275.4745 231.2787 14.10558230263359 AO-71 1 37854U 11061E 16322.65010210 .00001139 00000-0 70130-4 0 9994 2 37854 101.7007 82.7569 0170127 340.6347 18.8450 15.03147599275146 HRBE 1 37855U 11061F 16322.84546026 .00001175 00000-0 70780-4 0 9996 2 37855 101.7130 81.0085 0183453 345.3067 14.2852 15.02089320275058 HORYU-2 1 38340U 12025D 16321.93049358 .00000345 00000-0 59180-4 0 9991 2 38340 098.3677 312.5090 0010533 244.8461 115.1655 14.75185279231583 RS-40 1 38735U 12041C 16322.85215656 .00000023 00000-0 93379-4 0 9996 2 38735 82.4748 95.9633 0017553 128.1298 232.1366 12.42574206195458 BEESAT-3 1 39134U 13015E 16322.71557083 .00001611 00000-0 91054-4 0 9992 2 39134 64.8706 188.5188 0019282 301.2984 58.6254 15.16884478197392 BEESAT-2 1 39136U 13015G 16322.63844151 .00001505 00000-0 91812-4 0 9994 2 39136 64.8699 196.6565 0019740 308.2096 51.7251 15.14355902197231 ZACUBE-1 1 39417U 13066B 16322.09360968 .00000368 00000-0 53372-4 0 9996 2 39417 97.6605 8.2801 0058245 242.7031 116.8244 14.80551601161398 TRITON-1 1 39427U 13066M 16322.12067017 .00000286 00000-0 54295-4 0 9994 2 39427 97.6535 345.5545 0113386 308.3559 50.7499 14.67321598159946 GOMX-1 1 39430U 13066Q 16322.56960868 .00000532 00000-0 10610-3 0 9998 2 39430 97.6632 331.8115 0152393 351.7225 8.1461 14.58730835159081 LO-74 1 39440U 13066AA 16322.16953506 .00000336 00000-0 54558-4 0 9998 2 39440 97.6555 359.2568 0079503 267.8961 91.3143 14.75303946160831 SPROUT 1 39770U 14029E 16322.86638626 .00001061 00000-0 12818-3 0 9992 2 39770 97.8745 58.4222 0007971 303.3561 56.6871 14.85806770134755 EO-80 1 40032U 14033Y 16322.82348830 .00000480 00000-0 58714-4 0 9991 2 40032 97.9174 227.4844 0010624 275.8124 84.1881 14.87779711131019 VELOX-1 1 40057U 14034E 16322.79893900 .00000685 00000-0 10499-3 0 9992 2 40057 98.1922 53.8989 0011489 22.2497 337.9200 14.76915068128552 DAURIA DX 1 1 40071U 14037C 16322.72335111 .00000307 00000-0 47057-4 0 9991 2 40071 98.3320 59.5602 0009022 20.7607 339.3974 14.80918671127677 UKUBE-1 1 40074U 14037F 16322.82569885 .00000723 00000-0 95467-4 0 9992 2 40074 98.3380 62.4782 0005186 26.4529 333.6939 14.83287479127846 HODOYOSHI-1 1 40299U 14070B 16322.76318072 .00001624 00000-0 74429-4 0 9997 2 40299 97.4214 42.5934 0014969 110.9366 3.6083 15.21799627112783 CHUBUSAT-1 1 40300U 14070C 16322.72813649 .00001819 00000-0 86243-4 0 9999 2 40300 97.4158 40.3506 0022192 118.8979 357.3496 15.20355118112653 QSAT-EOS 1 40301U 14070D 16321.87148788 .00004293 00000-0 18810-3 0 9993 2 40301 097.4096 039.0721 0029734 121.0260 346.5055 15.22142635112524 FIREBIRD FU3 1 40377U 15003B 16322.67964601 .00002080 00000-0 94981-4 0 9998 2 40377 99.1032 98.9388 0139767 342.9396 16.7155 15.13931806 98998 FIREBIRD FU4 1 40378U 15003C 16322.67467180 .00002171 00000-0 98785-4 0 9996 2 40378 99.1034 98.9552 0139942 342.8877 16.7655 15.13950865 98993 GRIFEX 1 40379U 15003D 16322.67264251 .00001556 00000-0 75649-4 0 9991 2 40379 99.1039 97.5841 0144927 348.0097 11.7690 15.11855967 98917 NO-84 1 40654U 15025D 16322.37449022 .00011435 00000-0 22539-3 0 02897 2 40654 054.9960 100.3050 0198318 095.0245 267.3313 15.29326790047446 NO-83 1 40655U 15025E 16322.36209951 .00019347 00000-0 33065-3 0 03204 2 40655 054.9818 087.9203 0174233 101.2747 260.7816 15.36214036047594 DEORBITSAIL 1 40719U 15032E 16322.26244252 .00000693 00000-0 10842-3 0 9999 2 40719 97.9996 212.4114 0017790 103.1019 257.2178 14.75795530 73060 NUDT-PHONESAT 1 40900U 15049B 16322.81046951 .00002740 00000-0 13743-3 0 9994 2 40900 97.4447 327.9381 0013063 239.3500 120.6447 15.18102820 64370 XW-2D 1 40907U 15049J 16322.84966483 .00001130 00000-0 65478-4 0 9990 2 40907 97.4510 326.4916 0013682 219.8881 140.1347 15.14138008 64254 XW-2F 1 40910U 15049M 16322.82735347 .00001683 00000-0 94002-4 0 9993 2 40910 97.4537 326.8413 0014613 218.6850 141.3337 15.14802753 64146 XW-2B 1 40911U 15049N 16322.85128220 .00001092 00000-0 63456-4 0 9996 2 40911 97.4557 326.7559 0013583 220.0917 139.9314 15.14111241 64159 DCBB 1 40912U 15049P 16322.58562124 .00002348 00000-0 12254-3 0 9996 2 40912 97.4522 327.8280 0014874 214.2253 273.3390 15.16823055 64205 TW-1C 1 40926U 15051B 16322.83068292 .00009082 00000-0 23407-3 0 9993 2 40926 97.2578 358.2059 0012074 207.8340 238.8634 15.39350390 64373 TW-1A 1 40928U 15051D 16321.87286171 .00004470 00000-0 13587-3 0 9990 2 40928 097.2540 355.4313 0011669 237.2415 247.2277 15.34499549064120 IO-86 1 40931U 15052B 16321.67255606 .00000571 00000-0 -95404-5 0 9991 2 40931 6.0013 307.9653 0012896 113.5980 246.5443 14.76496211 61506 GomX-3 1 40949U 98067HA 16292.18357804 .08527750 12374-4 77882-3 0 9992 2 40949 51.6055 106.7696 0006699 286.1344 73.8944 16.38002265 59645 LQSat 1 40958U 15057A 16322.70737838 .00000136 00000-0 29008-4 0 9994 2 40958 98.0016 35.4737 0018921 26.6358 333.5816 14.72922955 59988 AO-85 1 40967U 15058D 16322.47522576 .00000612 00000-0 87323-4 0 03166 2 40967 064.7768 140.9900 0185193 155.0811 205.9380 14.75233909045882 ATHENOXAT-1 1 41168U 15077C 16322.31946346 .00003577 00000-0 16991-3 0 9991 2 41168 14.9970 276.2601 0012276 322.0916 95.6962 15.10762276 50949 ChubuSat-2 1 41338U 16012B 16321.49412437 .00000570 00000-0 38409-4 0 9996 2 41338 031.0044 022.9122 0013916 114.2043 246.0048 14.99569743041035 ChubuSat-3 1 41339U 16012C 16322.31754678 .00000676 00000-0 46519-4 0 9993 2 41339 31.0134 17.1832 0013704 128.5695 231.6179 14.99789676 41131 Horyu-4 1 41340U 16012D 16322.37480484 .00000892 00000-0 62659-4 0 9995 2 41340 31.0063 15.6099 0014248 135.3950 224.7834 15.00317557 41179 OUFTI-1 1 41458U 16025C 16322.82055950 .00003243 00000-0 18024-3 0 9994 2 41458 98.2059 342.1698 0177278 275.3670 82.7347 15.02126230 30839 e-st@r-II 1 41459U 16025D 16321.95861238 .00002854 00000-0 15970-3 0 9996 2 41459 098.2071 341.2431 0177171 278.5370 079.5790 15.02037520030708 AAUSAT4 1 41460U 16025E 16322.65413108 .00004239 00000-0 23752-3 0 9991 2 41460 98.2020 342.0300 0169536 274.9308 83.2515 15.02591406 30812 MinXSS 1 41474U 98067HU 16322.19489772 .00046743 00000-0 41557-3 0 9990 2 41474 51.6431 6.5208 0004052 9.6357 350.4717 15.68022929 28847 CADRE 1 41475U 98067HV 16322.72874306 .00132278 00000-0 65927-3 0 9997 2 41475 51.6352 358.7443 0007289 26.7287 333.4090 15.80939976 28994 NODES 1 1 41477U 98067HX 16322.23696466 .00025380 00000-0 26517-3 0 9991 2 41477 51.6383 8.2637 0003352 0.7229 359.3770 15.64305095 28732 NODES 2 1 41478U 98067HY 16322.56306459 .00021693 00000-0 22845-3 0 9991 2 41478 51.6382 6.6900 0003327 2.5280 357.5731 15.64206419 28788 LO-87 1 41557U 16033B 16322.78481860 .00002846 00000-0 11261-3 0 9995 2 41557 97.4843 36.1977 0015644 37.2937 111.6946 15.26184811 26174 NuSat2 1 41558U 16033C 16322.79451235 .00002882 00000-0 11451-3 0 9991 2 41558 97.4880 36.2265 0014991 37.1680 79.4967 15.26052836 26170 Lapan A3 1 41603U 16040E 16322.76510193 .00000593 00000-0 31399-4 0 9997 2 41603 97.4930 20.9082 0015303 90.8629 49.2469 15.19200720 22550 Swayam 1 41607U 16040J 16321.86481140 .00002315 00000-0 11098-3 0 9997 2 41607 097.4907 020.0146 0016400 097.7826 262.5271 15.19808827022344 Pratham 1 41783U 16059A 16322.72950784 .00000122 00000-0 33238-4 0 9998 2 41783 98.2001 19.9492 0034610 102.9874 257.5183 14.62780356 7699 OBJECT B 1 41784U 16059B 16321.75936866 .00000253 00000-0 58229-4 0 9998 2 41784 098.1978 019.0124 0033165 106.2030 254.2828 14.63140902007519 OBJECT C 1 41785U 16059C 16322.71383086 .00000055 00000-0 19980-4 0 9997 2 41785 98.1984 19.9664 0032611 102.1611 258.3247 14.63212406 7654 OBJECT D 1 41786U 16059D 16322.80067785 .00000153 00000-0 36560-4 0 9995 2 41786 98.2254 20.4755 0000968 86.5724 273.5582 14.66304986 7686 OBJECT E 1 41787U 16059E 16322.70511117 .00000176 00000-0 43193-4 0 9993 2 41787 98.1993 19.9794 0031622 102.4710 258.0031 14.63462348 7654 OBJECT F 1 41788U 16059F 16321.87836827 .00000146 00000-0 37215-4 0 9994 2 41788 098.1981 019.1695 0031165 107.9665 252.4937 14.63640870007533 AlSat 1N 1 41789U 16059G 16322.82348824 .00000233 00000-0 53547-4 0 9999 2 41789 98.1985 20.1403 0029797 98.3124 262.1446 14.63976757 7683 ScatSat 1 41790U 16059H 16322.63597473 .00000049 00000-0 23371-4 0 9993 2 41790 98.0979 15.2764 0012299 77.7677 282.4905 14.50108567 7604 OBJECT J 1 41791U 16059J 16321.84344107 .00000030 00000-0 16053-4 0 9999 2 41791 098.2724 019.2194 0043468 112.0155 248.5639 14.60744969007545 OBJECT K 1 41792U 16059K 16322.27288626 .00000529 00000-0 10939-3 0 9990 2 41792 98.1999 19.6055 0028767 104.0960 256.3444 14.64101470 7593 TY-1 1 41844U 16066D 16322.67860853 -.00000070 00000-0 00000 0 0 9994 2 41844 97.4049 327.1390 0014659 259.4002 206.7954 15.21458079 1172 CAS-2T 1 41845U 16066E 16322.68808924 -.00000068 00000-0 00000 0 0 9994 2 41845 98.7816 327.2290 0367220 155.7020 206.1993 14.37653902 1100 Pegasus-1 1 41846U 16066F 16322.69279526 -.00000068 00000-0 00000 0 0 9996 2 41846 98.7852 327.2274 0370375 156.0998 205.7916 14.36773235 1107 /EX
